Al Farabi 2
1 43805U 18099AZ 23103.15505700 .00007848 00000-0 61580-3 0 9999
2 43805 97.5809 168.2269 0007905 329.2465 30.8298 15.01178569237999
CHOMPTT
1 43855U 18104G 23103.34192705 .00030310 00000-0 82860-3 0 9993
2 43855 85.0340 210.1489 0013636 197.6513 162.4265 15.37139505240600
ISAT
1 43879U 18111D 23103.27419280 .00008599 00000-0 66813-3 0 9993
2 43879 97.6513 8.6519 0015365 19.3254 340.8549 15.01462472234595
UWE-4
1 43880U 18111E 23103.39492833 .00008187 00000-0 63788-3 0 9994
2 43880 97.6432 9.6031 0017875 39.9684 320.2852 15.01337955232640
Sparrow
1 43881U 18111F 23103.29646346 .00009035 00000-0 69660-3 0 9992
2 43881 97.6490 9.9514 0012872 61.7722 298.4800 15.01769284234647
Lume 1
1 43908U 18111AJ 23103.22506963 .00036568 00000-0 84986-3 0 9994
2 43908 97.1497 347.5959 0016103 79.5887 280.7175 15.42114048239363
FO-99
1 43937U 19003F 23103.07040749 .00048285 00000-0 98375-3 0 9991
2 43937 97.0961 131.3684 0016674 148.9411 211.2828 15.45944481235962
AstroCast 0.2
1 44083U 19018F 23103.14624351 .00058055 00000-0 13319-2 0 9995
2 44083 97.2751 162.6863 0008185 147.2077 212.9680 15.42498121224366
AISTechSat 3
1 44103U 19018AB 23102.45664628 .00030581 00000-0 83040-3 0 9995
2 44103 97.2604 161.5108 0011342 147.3474 337.7747 15.37470837224398
AISat 1
1 44104U 19018AC 23103.19957032 .00025916 00000-0 54873-3 0 9990
2 44104 97.3720 193.4946 0044350 134.2572 226.2330 15.44013393225683
Prox-1
1 44339U 19036A 23103.39487869 .00008684 00000-0 17858-2 0 9992
2 44339 24.0007 96.1929 0009538 269.6604 90.2795 14.58513916202124
Move-IIb
1 44398U 19038N 23103.40276608 .00049610 00000-0 14922-2 0 9991
2 44398 97.6602 83.4578 0017195 151.0494 209.1706 15.34074514208719
SONATE
1 44400U 19038Q 23103.87483184 .00013271 00000-0 61834-3 0 9994
2 44400 97.6804 80.2838 0021565 169.6536 190.5146 15.19820253208464
BeeSat 9
1 44412U 19038AC 23103.85614846 .00026978 00000-0 10236-2 0 9993
2 44412 97.6712 82.5489 0017326 161.8803 198.3056 15.26686139208336
JAISAT-1
1 44419U 19038F 23103.68889830 .00027103 00000-0 10179-2 0 9995
2 44419 97.6715 83.4282 0016645 158.6089 201.5848 15.27034802208689
Taurus 1
1 44530U 19059C 23103.40865497 .00005515 00000-0 14509-2 0 9999
2 44530 98.5477 210.2613 0011329 286.8901 73.1052 14.49442526189257
Duchifat 3
1 44854U 19089C 23103.44685012 .00009168 00000-0 63615-3 0 9999
2 44854 36.9636 117.8951 0007955 158.7052 348.9841 15.05107282183073
OPS-SAT
1 44878U 19092F 23103.76543523 .00031443 00000-0 10487-2 0 9993
2 44878 97.4787 291.8305 0008814 9.1961 350.9440 15.30981064183925
TO-108
1 44881U 19093C 23103.43241090 .00001353 00000-0 17537-3 0 9997
2 44881 97.8626 182.9866 0013503 291.6228 68.3549 14.82366027179200
FloripaSat 1
1 44885U 19093G 23103.82092778 .00004766 00000-0 56097-3 0 9996
2 44885 97.8693 185.7207 0012323 291.9322 68.0578 14.85238502179393
RS-44
1 44909U 19096E 23103.48794965 .00000023 00000-0 52473-4 0 9992
2 44909 82.5260 30.9316 0217158 338.5684 20.6426 12.79719907153937
BY70-2
1 45857U 20042B 23103.50685878 .00020920 00000-0 22895-2 0 9994
2 45857 97.9272 183.3052 0010127 208.6792 151.3874 14.87785964149916
UPMSat 2
1 46276U 20061E 23103.16877124 .00009096 00000-0 39820-3 0 9998
2 46276 97.3513 172.1424 0001981 146.8854 213.2507 15.22255918144392
AmicalSat
1 46287U 20061R 23103.59719291 .00015017 00000-0 73360-3 0 9994
2 46287 97.4051 171.3821 0001025 358.5267 1.5964 15.18346167143906
SALSAT
1 46495U 20068K 23103.33451910 .00007055 00000-0 47343-3 0 9990
2 46495 97.7641 50.7054 0015348 347.0095 13.0734 15.07055857139301
CAPE 3
1 47309U 21002A 23103.53893021 .00035762 00000-0 98038-3 0 9992
2 47309 60.6790 308.6264 0027987 146.5157 213.7713 15.36699317124331
AO-109
1 47311U 21002C 23103.85728775 .00030416 00000-0 87091-3 0 9991
2 47311 60.6817 305.2433 0026612 141.8407 218.4576 15.35453379124407
MiTEE 1
1 47314U 21002F 23103.77281494 .00184963 00000-0 20222-2 0 9996
2 47314 60.6700 280.7521 0015502 137.0827 223.1491 15.62255093124823
ExoCube 2
1 47319U 21002L 23102.97969610 .00029360 00000-0 86022-3 0 9995
2 47319 60.6808 310.4947 0027358 143.4906 216.8059 15.34728866124192
UVSQ-SAT
1 47438U 21006AB 23102.14895763 .00015332 00000-0 66815-3 0 9999
2 47438 97.3917 160.2802 0008664 318.4259 41.6318 15.22249108122595
YUSAT 1
1 47439U 21006AC 23103.12328564 .00022077 00000-0 90714-3 0 9998
2 47439 97.3925 161.7733 0008068 310.6672 49.3863 15.24170156122773
SOMP 2b
1 47445U 21006AJ 23103.15939720 .00016426 00000-0 72863-3 0 9996
2 47445 97.3889 160.6218 0008568 320.3988 39.6621 15.21629420122727
IDEASSat
1 47458U 21006AX 23103.57866507 .00015317 00000-0 68861-3 0 9999
2 47458 97.3976 161.7836 0007894 317.8245 42.2383 15.21190916122777
CubeSX-Sirius-HSE
1 47951U 21022V 23103.73168566 .00010939 00000-0 63638-3 0 9995
2 47951 97.5027 2.1747 0018436 192.5308 242.4746 15.12083568113282
CubeSX-HSE
1 47952U 21022W 23103.76684828 .00011154 00000-0 64747-3 0 9995
2 47952 97.5035 2.2517 0018767 190.7287 206.3963 15.12152938113290
KSU-Cubesat
1 47954U 21022Y 23103.25013540 .00012063 00000-0 68685-3 0 9993
2 47954 97.5041 2.0372 0018116 191.0602 169.0233 15.12836805112958
GRBAlpha
1 47959U 21022AD 23103.76616741 .00010988 00000-0 63675-3 0 9994
2 47959 97.5033 2.3232 0018488 191.1763 257.2637 15.12220597112114
Orbicraft-Zorkiy
1 47960U 21022AE 23103.55781565 .00011884 00000-0 67797-3 0 9995
2 47960 97.5063 2.4604 0018023 191.1509 289.5867 15.12770650112782
STECCO
1 47962U 21022AG 23103.65486740 .00020776 00000-0 10326-2 0 9990
2 47962 97.5028 4.4277 0013337 177.5091 269.7756 15.17599179112248
DO-111
1 47963U 21022AH 23103.20130301 .00122794 00000-0 29800-2 0 9991
2 47963 97.5035 9.1737 0012134 146.4128 213.7889 15.40486659112521
MO-110
1 47964U 21022AJ 23103.25917472 .00021205 00000-0 10328-2 0 9999
2 47964 97.5047 4.5469 0015749 174.6563 185.4842 15.18269109112211
FEES
1 48082U 21022AL 23103.37813485 .00036051 00000-0 15387-2 0 9998
2 48082 97.5039 5.3815 0011975 164.4915 195.6691 15.22744337111987
TUBIN
1 48900U 21059X 23103.74427378 .00011599 00000-0 56922-3 0 9991
2 48900 97.5883 237.0281 0010345 142.2582 323.5565 15.18209039 99390
IT-SPINS
1 49017U 21013G 23103.54160141 .00039179 00000-0 10308-2 0 9992
2 49017 51.5946 34.7417 0009317 91.3223 268.8828 15.38134810 99744
LEDSAT
1 49069U 21073D 23103.13428121 .00010018 00000-0 56795-3 0 9997
2 49069 97.4866 175.1539 0023874 348.4480 11.6200 15.12935013 91062
CUTE
1 49263U 21088D 23103.19532134 .00011642 00000-0 77106-3 0 9998
2 49263 97.5494 170.1601 0020005 124.4295 235.8827 15.07304627 84499
TeikyoSat 4
1 49396U 21102B 23103.58122667 .00001924 00000-0 15137-3 0 9999
2 49396 97.5161 157.5629 0013562 312.6607 47.3474 15.01913638 78077
Z-Sat
1 49399U 21102E 23103.84228785 .00004480 00000-0 32409-3 0 9990
2 49399 97.4907 158.9108 0020983 289.5507 70.3454 15.04344376 78210
KOSEN 1
1 49402U 21102H 23103.72255338 .00004601 00000-0 31900-3 0 9996
2 49402 97.4841 159.2021 0019574 278.3887 81.5121 15.05943117 78259
HO-113
1 50466U 21131B 23103.35967856 .00000865 00000-0 29587-3 0 9990
2 50466 98.5526 185.1094 0003674 349.7224 10.3888 14.38820239 68032
Tevel-3
1 50988U 22002E 23103.84863998 .00022175 00000-0 95819-3 0 9992
2 50988 97.4387 171.3543 0009764 104.3414 7.1400 15.22451726 68963
